AXM1854 WMKP-ZGGG

Flight info

Callsign AXM1854
Flight time N/A
Altitude 35000
Route BETN1A BETNU W546 VKB M765 DAGAG M771 DUMOL J103 SAPAX BIGEX B330 TAMOT W68 IDUMA IDUMA1
Aircraft A320/L-V/N

Departure

Time 2026-04-26 04:27
Airport Penang International Airport (WMKP)

Arrival

Time N/A
Airport Guangzhou Baiyun International Airport (ZGGG)
Time Latitude Longitude Altitude Speed Heading
2026-04-26 04:19 5.29249 100.26671 27 ft 0 kts 312°
2026-04-26 04:20 5.29241 100.26679 27 ft 2 kts 310°
2026-04-26 04:20 5.29231 100.26691 27 ft 2 kts 312°
2026-04-26 04:20 5.29221 100.26702 27 ft 2 kts 311°
2026-04-26 04:21 5.29211 100.26713 26 ft 2 kts 312°
2026-04-26 04:21 5.29204 100.26720 26 ft 1 kts 312°
2026-04-26 04:21 5.29198 100.26733 26 ft 2 kts 269°
2026-04-26 04:21 5.29202 100.26747 26 ft 1 kts 228°
2026-04-26 04:22 5.29207 100.26751 26 ft 1 kts 219°
2026-04-26 04:22 5.29209 100.26753 26 ft 0 kts 221°
2026-04-26 04:23 5.29207 100.26751 26 ft 1 kts 222°
2026-04-26 04:24 5.29194 100.26739 26 ft 3 kts 223°
2026-04-26 04:24 5.29161 100.26709 26 ft 7 kts 223°
2026-04-26 04:24 5.29105 100.26657 26 ft 13 kts 222°
2026-04-26 04:24 5.29016 100.26578 26 ft 18 kts 221°
2026-04-26 04:25 5.28911 100.26479 26 ft 22 kts 223°
2026-04-26 04:25 5.28814 100.26516 24 ft 16 kts 131°
2026-04-26 04:25 5.28716 100.26579 22 ft 17 kts 168°
2026-04-26 04:25 5.28623 100.26658 21 ft 14 kts 134°
2026-04-26 04:26 5.28628 100.26699 21 ft 7 kts 34°
2026-04-26 04:26 5.28646 100.26714 21 ft 0 kts 42°
2026-04-26 04:26 5.28657 100.26724 21 ft 14 kts 42°
2026-04-26 04:26 5.28915 100.26959 21 ft 83 kts 43°
2026-04-26 04:27 5.29498 100.27486 21 ft 139 kts 42°
2026-04-26 04:27 5.30330 100.28249 183 ft 168 kts 44°
2026-04-26 04:27 5.31188 100.29027 672 ft 170 kts 43°
2026-04-26 04:27 5.32121 100.29845 1053 ft 185 kts 43°
2026-04-26 04:28 5.33145 100.30745 1435 ft 201 kts 43°
2026-04-26 04:28 5.34229 100.31706 1792 ft 215 kts 43°
2026-04-26 04:28 5.35405 100.32757 1980 ft 238 kts 43°
2026-04-26 04:28 5.36693 100.33908 2331 ft 254 kts 44°
2026-04-26 04:29 5.37840 100.35300 2714 ft 266 kts 64°
2026-04-26 04:29 5.38546 100.37025 3372 ft 268 kts 71°
2026-04-26 04:29 5.39166 100.38801 4096 ft 269 kts 71°
2026-04-26 04:29 5.39793 100.40554 4803 ft 271 kts 71°
2026-04-26 04:30 5.40454 100.42329 5570 ft 271 kts 70°
2026-04-26 04:30 5.41133 100.44097 6333 ft 271 kts 69°
2026-04-26 04:30 5.41824 100.45857 7071 ft 273 kts 69°
2026-04-26 04:30 5.42526 100.47620 7771 ft 275 kts 69°
2026-04-26 04:31 5.43230 100.49380 8502 ft 276 kts 69°
2026-04-26 04:31 5.43954 100.51183 9205 ft 278 kts 69°
2026-04-26 04:31 5.44673 100.52973 9890 ft 280 kts 69°
2026-04-26 04:31 5.45411 100.54806 10483 ft 286 kts 68°
2026-04-26 04:32 5.46174 100.56694 10789 ft 302 kts 68°
2026-04-26 04:32 5.46985 100.58703 11065 ft 318 kts 69°
2026-04-26 04:32 5.47850 100.60843 11341 ft 334 kts 68°
2026-04-26 04:32 5.48750 100.63066 11600 ft 349 kts 68°
2026-04-26 04:33 5.49682 100.65370 11845 ft 363 kts 68°
2026-04-26 04:33 5.50637 100.67745 12081 ft 377 kts 68°
2026-04-26 04:33 5.51639 100.70238 12307 ft 389 kts 68°
2026-04-26 04:33 5.52665 100.72783 12599 ft 399 kts 68°
2026-04-26 04:34 5.53717 100.75394 13065 ft 403 kts 68°
2026-04-26 04:34 5.54765 100.77989 13566 ft 406 kts 68°
2026-04-26 04:34 5.55838 100.80647 14077 ft 408 kts 68°
2026-04-26 04:34 5.56915 100.83317 14558 ft 410 kts 68°
2026-04-26 04:35 5.57984 100.85967 14996 ft 412 kts 68°
2026-04-26 04:35 5.59058 100.88633 15411 ft 415 kts 68°
2026-04-26 04:35 5.60157 100.91361 15823 ft 417 kts 68°
2026-04-26 04:35 5.61241 100.94052 16232 ft 419 kts 68°
2026-04-26 04:36 5.62343 100.96787 16623 ft 421 kts 69°
2026-04-26 04:36 5.63447 100.99526 17005 ft 423 kts 69°
2026-04-26 04:36 5.64552 101.02269 17387 ft 425 kts 69°
2026-04-26 04:36 5.65654 101.05006 17763 ft 427 kts 69°
2026-04-26 04:37 5.66754 101.07743 18106 ft 430 kts 68°
2026-04-26 04:37 5.67880 101.10541 18452 ft 433 kts 68°
2026-04-26 04:37 5.69003 101.13330 18776 ft 435 kts 68°
2026-04-26 04:37 5.70147 101.16170 19096 ft 437 kts 68°
2026-04-26 04:38 5.71285 101.18999 19391 ft 440 kts 68°
2026-04-26 04:38 5.72450 101.21890 19696 ft 442 kts 68°
2026-04-26 04:38 5.73601 101.24748 19982 ft 445 kts 68°
2026-04-26 04:38 5.74770 101.27653 20272 ft 447 kts 68°
2026-04-26 04:39 5.75942 101.30568 20562 ft 449 kts 68°
2026-04-26 04:39 5.77116 101.33488 20840 ft 452 kts 68°
2026-04-26 04:39 5.78299 101.36428 21111 ft 454 kts 68°
2026-04-26 04:39 5.79476 101.39359 21408 ft 456 kts 68°
2026-04-26 04:40 5.80667 101.42322 21680 ft 458 kts 68°
2026-04-26 04:40 5.81859 101.45286 21950 ft 459 kts 68°
2026-04-26 04:40 5.83064 101.48284 22210 ft 461 kts 68°
2026-04-26 04:40 5.84276 101.51303 22446 ft 463 kts 68°
2026-04-26 04:41 5.85487 101.54316 22662 ft 466 kts 68°
2026-04-26 04:41 5.86700 101.57336 22893 ft 468 kts 68°
2026-04-26 04:41 5.87911 101.60350 23119 ft 469 kts 68°
2026-04-26 04:41 5.89135 101.63399 23345 ft 471 kts 68°
2026-04-26 04:42 5.90378 101.66496 23635 ft 471 kts 68°
2026-04-26 04:42 5.91594 101.69540 23974 ft 469 kts 68°
2026-04-26 04:42 5.92817 101.72604 24287 ft 469 kts 68°
2026-04-26 04:42 5.94028 101.75634 24581 ft 468 kts 68°
2026-04-26 04:43 5.95250 101.78687 24871 ft 468 kts 68°
2026-04-26 04:43 5.96466 101.81726 25170 ft 468 kts 68°
2026-04-26 04:43 5.97674 101.84739 25467 ft 467 kts 67°
2026-04-26 04:43 5.98891 101.87778 25763 ft 467 kts 67°
2026-04-26 04:44 6.00106 101.90809 26070 ft 466 kts 67°
2026-04-26 04:44 6.01312 101.93821 26372 ft 465 kts 67°
2026-04-26 04:44 6.02530 101.96862 26681 ft 464 kts 67°
2026-04-26 04:44 6.03724 101.99842 26973 ft 464 kts 67°
2026-04-26 04:45 6.04935 102.02865 27257 ft 464 kts 67°
2026-04-26 04:45 6.06127 102.05843 27532 ft 464 kts 67°
2026-04-26 04:45 6.07352 102.08903 27801 ft 464 kts 67°
2026-04-26 04:45 6.08559 102.11919 28090 ft 463 kts 67°
2026-04-26 04:46 6.09753 102.14906 28380 ft 463 kts 67°
2026-04-26 04:46 6.10967 102.17926 28669 ft 463 kts 67°
2026-04-26 04:46 6.12182 102.20932 28972 ft 462 kts 67°
2026-04-26 04:46 6.13389 102.23929 29285 ft 461 kts 67°
2026-04-26 04:47 6.14591 102.26914 29583 ft 460 kts 66°
2026-04-26 04:47 6.15895 102.29836 29873 ft 460 kts 63°
2026-04-26 04:47 6.17384 102.32748 30175 ft 459 kts 60°
2026-04-26 04:47 6.18997 102.35530 30457 ft 458 kts 57°
2026-04-26 04:48 6.22415 102.40960 31031 ft 458 kts 57°
2026-04-26 04:48 6.24167 102.43732 31311 ft 457 kts 57°
2026-04-26 04:48 6.25860 102.46410 31578 ft 457 kts 57°
2026-04-26 04:49 6.27581 102.49137 31850 ft 456 kts 57°
2026-04-26 04:49 6.29277 102.51829 32110 ft 456 kts 57°
2026-04-26 04:49 6.30977 102.54531 32392 ft 455 kts 56°
2026-04-26 04:49 6.32668 102.57217 32671 ft 454 kts 56°
2026-04-26 04:50 6.34344 102.59880 32949 ft 454 kts 56°
2026-04-26 04:50 6.36039 102.62575 33197 ft 454 kts 56°
2026-04-26 04:50 6.37736 102.65273 33409 ft 456 kts 56°
2026-04-26 04:50 6.39419 102.67960 33598 ft 457 kts 57°
2026-04-26 04:51 6.41105 102.70657 33798 ft 458 kts 57°
2026-04-26 04:51 6.42819 102.73396 33986 ft 459 kts 56°
2026-04-26 04:51 6.44526 102.76120 34149 ft 460 kts 57°
2026-04-26 04:51 6.46240 102.78848 34291 ft 461 kts 57°
2026-04-26 04:52 6.47946 102.81562 34430 ft 462 kts 57°
2026-04-26 04:52 6.49636 102.84320 34582 ft 463 kts 58°
2026-04-26 04:52 6.51295 102.87098 34746 ft 464 kts 58°
2026-04-26 04:52 6.52951 102.89888 34825 ft 465 kts 58°
2026-04-26 04:53 6.56266 102.95476 34838 ft 465 kts 58°
2026-04-26 04:53 6.59596 103.01079 34828 ft 467 kts 58°
2026-04-26 04:54 6.62947 103.06714 34837 ft 470 kts 58°
2026-04-26 04:54 6.66315 103.12379 34851 ft 472 kts 58°
2026-04-26 04:55 6.69693 103.18060 34849 ft 473 kts 58°
2026-04-26 04:55 6.73066 103.23736 34847 ft 474 kts 58°
2026-04-26 04:56 6.76466 103.29460 34846 ft 474 kts 58°
2026-04-26 04:56 6.79837 103.35143 34842 ft 474 kts 58°
2026-04-26 04:57 6.83239 103.40875 34847 ft 474 kts 58°
2026-04-26 04:57 6.86630 103.46595 34857 ft 475 kts 58°
2026-04-26 04:58 6.90023 103.52325 34852 ft 475 kts 58°
2026-04-26 04:58 6.93410 103.58041 34854 ft 474 kts 58°
2026-04-26 04:59 6.96819 103.63718 34864 ft 474 kts 58°
2026-04-26 04:59 7.00237 103.69406 34867 ft 473 kts 58°
2026-04-26 05:00 7.03636 103.75083 34871 ft 473 kts 58°
2026-04-26 05:00 7.07034 103.80750 34873 ft 473 kts 58°
2026-04-26 05:01 7.10434 103.86419 34873 ft 472 kts 58°
2026-04-26 05:01 7.13864 103.92091 34871 ft 473 kts 57°
2026-04-26 05:02 7.17268 103.97748 34874 ft 472 kts 57°
2026-04-26 05:02 7.20666 104.03425 34882 ft 472 kts 58°
2026-04-26 05:03 7.24049 104.09084 34871 ft 472 kts 58°
2026-04-26 05:03 7.27442 104.14754 34856 ft 472 kts 58°
2026-04-26 05:04 7.30834 104.20451 34857 ft 472 kts 58°
2026-04-26 05:04 7.34189 104.26103 34863 ft 472 kts 58°
2026-04-26 05:05 7.37547 104.31770 34863 ft 471 kts 58°
2026-04-26 05:05 7.40925 104.37478 34858 ft 471 kts 58°
2026-04-26 05:06 7.44268 104.43125 34854 ft 470 kts 58°
2026-04-26 05:06 7.47636 104.48817 34851 ft 470 kts 58°
2026-04-26 05:07 7.50972 104.54457 34854 ft 470 kts 58°
2026-04-26 05:07 7.54319 104.60117 34857 ft 469 kts 58°
2026-04-26 05:08 7.57679 104.65803 34852 ft 469 kts 58°
2026-04-26 05:08 7.61005 104.71465 34848 ft 470 kts 58°
2026-04-26 05:09 7.64349 104.77148 34855 ft 470 kts 58°
2026-04-26 05:09 7.67691 104.82816 34862 ft 470 kts 58°
2026-04-26 05:10 7.71027 104.88469 34850 ft 470 kts 58°
2026-04-26 05:10 7.74367 104.94132 34838 ft 470 kts 58°
2026-04-26 05:11 7.77712 104.99805 34845 ft 470 kts 58°
2026-04-26 05:11 7.81073 105.05508 34854 ft 469 kts 58°
2026-04-26 05:12 7.84391 105.11142 34858 ft 469 kts 58°
2026-04-26 05:12 7.87731 105.16816 34862 ft 469 kts 58°
2026-04-26 05:13 7.91063 105.22478 34852 ft 470 kts 58°
2026-04-26 05:13 7.94398 105.28151 34841 ft 470 kts 58°
2026-04-26 05:14 7.97736 105.33833 34849 ft 470 kts 58°
2026-04-26 05:14 8.01091 105.39531 34858 ft 470 kts 58°
2026-04-26 05:15 8.04439 105.45197 34850 ft 469 kts 58°
2026-04-26 05:15 8.07764 105.50835 34837 ft 469 kts 58°
2026-04-26 05:16 8.11104 105.56501 34840 ft 470 kts 58°
2026-04-26 05:16 8.14469 105.62170 34845 ft 470 kts 58°
2026-04-26 05:17 8.17823 105.67856 34848 ft 470 kts 58°
2026-04-26 05:17 8.21145 105.73532 34858 ft 469 kts 58°
2026-04-26 05:18 8.24477 105.79214 34861 ft 469 kts 58°
2026-04-26 05:18 8.27809 105.84894 34857 ft 469 kts 58°
2026-04-26 05:19 8.31135 105.90562 34861 ft 469 kts 58°
2026-04-26 05:19 8.34460 105.96230 34863 ft 469 kts 58°
2026-04-26 05:20 8.37791 106.01906 34853 ft 469 kts 58°
2026-04-26 05:20 8.41122 106.07591 34846 ft 469 kts 58°
2026-04-26 05:21 8.44431 106.13240 34846 ft 468 kts 58°
2026-04-26 05:21 8.47769 106.18936 34845 ft 468 kts 58°
2026-04-26 05:22 8.51087 106.24607 34850 ft 468 kts 58°
2026-04-26 05:22 8.54394 106.30258 34857 ft 469 kts 58°
2026-04-26 05:23 8.57727 106.35958 34854 ft 469 kts 58°
2026-04-26 05:23 8.61032 106.41615 34851 ft 469 kts 58°
2026-04-26 05:24 8.64344 106.47288 34851 ft 469 kts 58°
2026-04-26 05:24 8.67669 106.52992 34854 ft 468 kts 58°
2026-04-26 05:25 8.70975 106.58662 34850 ft 468 kts 58°
2026-04-26 05:25 8.74011 106.64465 34847 ft 469 kts 64°
2026-04-26 05:26 8.76548 106.70571 34852 ft 470 kts 66°
2026-04-26 05:26 8.79014 106.76705 34858 ft 470 kts 66°
2026-04-26 05:27 8.81487 106.82836 34854 ft 470 kts 66°
2026-04-26 05:27 8.83956 106.88947 34849 ft 470 kts 66°
2026-04-26 05:28 8.86433 106.95069 34845 ft 470 kts 66°
2026-04-26 05:28 8.88905 107.01183 34843 ft 470 kts 66°
2026-04-26 05:29 8.91389 107.07329 34855 ft 470 kts 66°
2026-04-26 05:29 8.93844 107.13403 34863 ft 469 kts 66°
2026-04-26 05:30 8.96325 107.19544 34848 ft 469 kts 66°
2026-04-26 05:30 8.98775 107.25616 34836 ft 469 kts 66°
2026-04-26 05:31 9.01245 107.31742 34841 ft 469 kts 66°
2026-04-26 05:31 9.03705 107.37842 34848 ft 469 kts 66°
2026-04-26 05:32 9.06161 107.43938 34839 ft 469 kts 66°
2026-04-26 05:32 9.08627 107.50061 34830 ft 468 kts 66°
2026-04-26 05:33 9.11094 107.56173 34837 ft 468 kts 66°
2026-04-26 05:33 9.13596 107.62316 34843 ft 468 kts 66°
2026-04-26 05:34 9.16054 107.68412 34847 ft 469 kts 66°
2026-04-26 05:34 9.18504 107.74528 34846 ft 469 kts 66°
2026-04-26 05:35 9.20960 107.80656 34826 ft 468 kts 66°
2026-04-26 05:35 9.23408 107.86762 34814 ft 468 kts 66°
2026-04-26 05:36 9.25864 107.92886 34834 ft 469 kts 66°
2026-04-26 05:36 9.28314 107.99001 34850 ft 469 kts 66°
2026-04-26 05:37 9.30771 108.05138 34839 ft 469 kts 66°
2026-04-26 05:37 9.33209 108.11232 34834 ft 469 kts 66°
2026-04-26 05:38 9.35668 108.17382 34842 ft 469 kts 66°
2026-04-26 05:38 9.38102 108.23475 34845 ft 469 kts 66°
2026-04-26 05:39 9.40551 108.29620 34855 ft 469 kts 66°
2026-04-26 05:39 9.43030 108.35731 34857 ft 469 kts 64°
2026-04-26 05:40 9.46293 108.41406 34851 ft 466 kts 52°
2026-04-26 05:40 9.50551 108.46339 34847 ft 465 kts 41°
2026-04-26 05:41 9.55635 108.50374 34858 ft 463 kts 32°
2026-04-26 05:41 9.61044 108.53974 34863 ft 462 kts 32°
2026-04-26 05:42 9.66430 108.57544 34845 ft 462 kts 32°
2026-04-26 05:42 9.71809 108.61131 34835 ft 463 kts 32°
2026-04-26 05:43 9.77222 108.64749 34848 ft 464 kts 32°
2026-04-26 05:43 9.82599 108.68372 34857 ft 464 kts 32°
2026-04-26 05:44 9.87971 108.71988 34853 ft 463 kts 32°
2026-04-26 05:44 9.93361 108.75602 34846 ft 463 kts 32°
2026-04-26 05:45 9.98739 108.79204 34837 ft 462 kts 32°
2026-04-26 05:45 10.04136 108.82809 34834 ft 462 kts 32°
2026-04-26 05:46 10.09536 108.86418 34847 ft 463 kts 32°
2026-04-26 05:46 10.14972 108.90041 34856 ft 463 kts 32°
2026-04-26 05:47 10.20370 108.93641 34848 ft 463 kts 32°
2026-04-26 05:47 10.25776 108.97258 34844 ft 463 kts 32°
2026-04-26 05:48 10.31155 109.00863 34848 ft 463 kts 32°
2026-04-26 05:48 10.36583 109.04501 34851 ft 463 kts 32°
2026-04-26 05:49 10.44659 109.09921 34838 ft 463 kts 32°
2026-04-26 05:50 10.50047 109.13540 34832 ft 463 kts 32°
2026-04-26 05:50 10.55424 109.17152 34839 ft 463 kts 32°
2026-04-26 05:51 10.60778 109.20750 34840 ft 463 kts 32°
2026-04-26 05:51 10.66187 109.24386 34846 ft 463 kts 32°
2026-04-26 05:52 10.71563 109.28001 34847 ft 463 kts 32°
2026-04-26 05:52 10.76959 109.31634 34828 ft 462 kts 32°
2026-04-26 05:53 10.82314 109.35241 34826 ft 462 kts 32°
2026-04-26 05:53 10.87687 109.38862 34842 ft 463 kts 32°
2026-04-26 05:54 10.93056 109.42482 34844 ft 463 kts 32°
2026-04-26 05:54 10.98446 109.46118 34849 ft 463 kts 32°
2026-04-26 05:55 11.03844 109.49764 34851 ft 463 kts 32°
2026-04-26 05:55 11.09209 109.53389 34836 ft 463 kts 32°
2026-04-26 05:56 11.14626 109.56981 34837 ft 462 kts 31°
2026-04-26 05:56 11.20061 109.60524 34851 ft 462 kts 31°
2026-04-26 05:57 11.25483 109.64082 34855 ft 462 kts 31°
2026-04-26 05:57 11.30904 109.67667 34856 ft 463 kts 31°
2026-04-26 05:58 11.36319 109.71265 34857 ft 463 kts 31°
2026-04-26 05:58 11.41730 109.74847 34858 ft 463 kts 31°
2026-04-26 05:59 11.47165 109.78441 34862 ft 463 kts 31°
2026-04-26 05:59 11.52567 109.82014 34857 ft 462 kts 31°
2026-04-26 06:00 11.57993 109.85601 34856 ft 463 kts 31°
2026-04-26 06:00 11.63387 109.89170 34851 ft 464 kts 31°
2026-04-26 06:01 11.68818 109.92764 34853 ft 465 kts 31°
2026-04-26 06:01 11.74278 109.96379 34863 ft 465 kts 31°
2026-04-26 06:02 11.79711 109.99978 34866 ft 466 kts 31°
2026-04-26 06:02 11.85150 110.03584 34868 ft 467 kts 31°
2026-04-26 06:03 11.90638 110.07221 34867 ft 467 kts 31°
2026-04-26 06:03 11.96099 110.10845 34869 ft 467 kts 31°
2026-04-26 06:04 12.01565 110.14475 34870 ft 467 kts 31°
2026-04-26 06:04 12.07024 110.18100 34869 ft 467 kts 31°
2026-04-26 06:05 12.12486 110.21724 34868 ft 467 kts 31°
2026-04-26 06:05 12.17962 110.25349 34871 ft 467 kts 31°
2026-04-26 06:06 12.23427 110.28981 34875 ft 467 kts 31°
2026-04-26 06:06 12.28876 110.32614 34874 ft 468 kts 31°
2026-04-26 06:07 12.34331 110.36253 34871 ft 467 kts 31°
2026-04-26 06:07 12.39785 110.39938 34869 ft 468 kts 32°
2026-04-26 06:08 12.45177 110.43700 34868 ft 467 kts 32°
2026-04-26 06:08 12.50544 110.47452 34869 ft 467 kts 32°
2026-04-26 06:09 12.55917 110.51209 34871 ft 467 kts 32°
2026-04-26 06:09 12.61292 110.54967 34872 ft 468 kts 32°
2026-04-26 06:10 12.66708 110.58759 34875 ft 469 kts 32°
2026-04-26 06:10 12.72107 110.62543 34882 ft 469 kts 32°
2026-04-26 06:11 12.77491 110.66303 34878 ft 468 kts 32°
2026-04-26 06:11 12.82892 110.70094 34862 ft 469 kts 32°
2026-04-26 06:12 12.88264 110.73861 34863 ft 469 kts 32°
2026-04-26 06:12 12.93685 110.77660 34871 ft 470 kts 32°
2026-04-26 06:13 12.99123 110.81469 34865 ft 471 kts 32°
2026-04-26 06:13 13.04610 110.85316 34856 ft 471 kts 32°
2026-04-26 06:14 13.10032 110.89118 34852 ft 471 kts 32°
2026-04-26 06:14 13.15446 110.92901 34851 ft 471 kts 32°
2026-04-26 06:15 13.20913 110.96725 34852 ft 472 kts 32°
2026-04-26 06:15 13.26381 111.00562 34853 ft 472 kts 32°
2026-04-26 06:16 13.31796 111.04366 34853 ft 473 kts 32°
2026-04-26 06:16 13.37247 111.08199 34851 ft 473 kts 32°
2026-04-26 06:17 13.42713 111.12046 34852 ft 473 kts 32°
2026-04-26 06:17 13.48149 111.15873 34864 ft 473 kts 32°
2026-04-26 06:18 13.53580 111.19700 34871 ft 472 kts 32°
2026-04-26 06:18 13.59020 111.23536 34864 ft 473 kts 32°
2026-04-26 06:19 13.64473 111.27383 34866 ft 473 kts 32°
2026-04-26 06:19 13.69921 111.31229 34873 ft 473 kts 32°
2026-04-26 06:20 13.75373 111.35081 34877 ft 474 kts 32°
2026-04-26 06:20 13.80805 111.38923 34880 ft 474 kts 32°
2026-04-26 06:21 13.86282 111.42799 34876 ft 474 kts 32°
2026-04-26 06:21 13.91716 111.46650 34868 ft 475 kts 32°
2026-04-26 06:22 13.97173 111.50517 34868 ft 475 kts 32°
2026-04-26 06:22 14.02659 111.54371 34867 ft 475 kts 31°
2026-04-26 06:23 14.08150 111.58219 34870 ft 476 kts 32°
2026-04-26 06:23 14.13647 111.62077 34878 ft 476 kts 31°
2026-04-26 06:24 14.19145 111.65935 34874 ft 476 kts 32°
2026-04-26 06:24 14.24639 111.69835 34875 ft 477 kts 32°
2026-04-26 06:25 14.30142 111.73732 34874 ft 478 kts 32°
2026-04-26 06:25 14.35703 111.77662 34875 ft 478 kts 32°
2026-04-26 06:26 14.41248 111.81580 34873 ft 478 kts 32°
2026-04-26 06:26 14.46813 111.85516 34870 ft 478 kts 32°
2026-04-26 06:27 14.52289 111.89395 34870 ft 478 kts 32°
2026-04-26 06:27 14.57801 111.93297 34868 ft 478 kts 31°
2026-04-26 06:28 14.63331 111.97204 34867 ft 479 kts 32°
2026-04-26 06:28 14.68866 112.01120 34863 ft 478 kts 32°
2026-04-26 06:29 14.74408 112.05020 34855 ft 479 kts 31°
2026-04-26 06:29 14.79949 112.08897 34850 ft 479 kts 31°
2026-04-26 06:30 14.85528 112.12813 34855 ft 480 kts 31°
2026-04-26 06:30 14.91105 112.16731 34862 ft 480 kts 31°
2026-04-26 06:31 14.96663 112.20643 34863 ft 480 kts 31°
2026-04-26 06:31 15.02214 112.24551 34866 ft 480 kts 31°
2026-04-26 06:32 15.07785 112.28477 34868 ft 481 kts 31°
2026-04-26 06:32 15.13331 112.32379 34868 ft 481 kts 31°
2026-04-26 06:33 15.18920 112.36303 34873 ft 481 kts 31°
2026-04-26 06:33 15.24507 112.40238 34879 ft 481 kts 31°
2026-04-26 06:34 15.30054 112.44154 34873 ft 481 kts 31°
2026-04-26 06:34 15.35631 112.48096 34864 ft 481 kts 31°
2026-04-26 06:35 15.41163 112.52010 34874 ft 481 kts 31°
2026-04-26 06:35 15.46734 112.55954 34886 ft 481 kts 31°
2026-04-26 06:36 15.52281 112.59884 34877 ft 482 kts 31°
2026-04-26 06:36 15.57863 112.63840 34867 ft 483 kts 31°
2026-04-26 06:37 15.63437 112.67810 34866 ft 484 kts 31°
2026-04-26 06:37 15.69017 112.71800 34868 ft 484 kts 31°
2026-04-26 06:38 15.74564 112.75752 34881 ft 484 kts 31°
2026-04-26 06:38 15.80138 112.79717 34887 ft 484 kts 31°
2026-04-26 06:39 15.85716 112.83684 34875 ft 484 kts 31°
2026-04-26 06:39 15.91301 112.87659 34868 ft 484 kts 31°
2026-04-26 06:40 15.96893 112.91641 34881 ft 484 kts 31°
2026-04-26 06:40 16.02501 112.95637 34891 ft 484 kts 31°
2026-04-26 06:41 16.08065 112.99604 34889 ft 485 kts 31°
2026-04-26 06:41 16.13694 113.03612 34887 ft 486 kts 31°
2026-04-26 06:42 16.19311 113.07605 34881 ft 486 kts 31°
2026-04-26 06:42 16.24912 113.11602 34878 ft 485 kts 31°
2026-04-26 06:43 16.30499 113.15596 34889 ft 485 kts 31°
2026-04-26 06:43 16.36075 113.19587 34900 ft 485 kts 31°
2026-04-26 06:44 16.41715 113.23626 34886 ft 485 kts 31°
2026-04-26 06:44 16.47271 113.27609 34868 ft 486 kts 31°
2026-04-26 06:45 16.52875 113.31628 34875 ft 487 kts 31°
2026-04-26 06:45 16.58443 113.35625 34884 ft 486 kts 31°
2026-04-26 06:46 16.64026 113.39636 34879 ft 486 kts 31°
2026-04-26 06:46 16.69622 113.43660 34873 ft 486 kts 31°
2026-04-26 06:47 16.75174 113.47654 34869 ft 486 kts 30°
2026-04-26 06:47 16.80763 113.51678 34869 ft 486 kts 31°
2026-04-26 06:48 16.86328 113.55692 34873 ft 486 kts 31°
2026-04-26 06:48 16.91885 113.59701 34878 ft 486 kts 31°
2026-04-26 06:49 16.97472 113.63744 34871 ft 486 kts 31°
2026-04-26 06:49 17.03048 113.67789 34868 ft 485 kts 31°
2026-04-26 06:50 17.08649 113.71802 34875 ft 485 kts 30°
2026-04-26 06:50 17.14266 113.75785 34883 ft 485 kts 30°
2026-04-26 06:51 17.19868 113.79756 34887 ft 486 kts 30°
2026-04-26 06:51 17.28296 113.85760 34890 ft 485 kts 30°
2026-04-26 06:52 17.36345 113.91509 34888 ft 486 kts 30°
2026-04-26 06:52 17.44253 113.97165 34891 ft 486 kts 30°
2026-04-26 06:53 17.52126 114.02804 34892 ft 485 kts 30°
2026-04-26 06:53 17.59852 114.08342 34892 ft 485 kts 30°
2026-04-26 06:54 17.68183 114.14321 34883 ft 486 kts 30°
2026-04-26 06:54 17.76096 114.20003 34895 ft 487 kts 30°
2026-04-26 06:55 17.84002 114.25689 34900 ft 487 kts 30°
2026-04-26 06:55 17.91811 114.31313 34897 ft 487 kts 30°
2026-04-26 06:56 17.99615 114.36939 34900 ft 487 kts 30°
2026-04-26 06:56 18.07821 114.42868 34900 ft 485 kts 30°
2026-04-26 06:57 18.15759 114.48571 34883 ft 485 kts 27°
2026-04-26 06:57 18.24353 114.52432 34894 ft 469 kts
2026-04-26 06:58 18.33409 114.53136 34905 ft 454 kts 349°
2026-04-26 06:58 18.42353 114.52008 34901 ft 452 kts 347°
2026-04-26 06:59 18.51384 114.50834 34904 ft 451 kts 347°
2026-04-26 06:59 18.60562 114.49663 34891 ft 452 kts 347°
2026-04-26 07:00 18.69242 114.48563 34891 ft 452 kts 347°
2026-04-26 07:00 18.77983 114.47456 34902 ft 453 kts 347°
2026-04-26 07:01 18.86631 114.46362 34887 ft 453 kts 347°
2026-04-26 07:01 18.95469 114.45245 34892 ft 452 kts 347°
2026-04-26 07:02 19.04392 114.44263 34904 ft 454 kts 349°
2026-04-26 07:02 19.13387 114.43487 34901 ft 455 kts 349°
2026-04-26 07:03 19.22458 114.42711 34897 ft 455 kts 349°
2026-04-26 07:03 19.31488 114.41930 34896 ft 454 kts 349°
2026-04-26 07:04 19.40474 114.41149 34904 ft 455 kts 349°
2026-04-26 07:04 19.49547 114.40361 34908 ft 456 kts 349°
2026-04-26 07:05 19.58654 114.39571 34896 ft 454 kts 349°
2026-04-26 07:05 19.67736 114.38779 34899 ft 456 kts 349°
2026-04-26 07:06 19.76804 114.37994 34903 ft 457 kts 349°
2026-04-26 07:06 19.85801 114.37209 34919 ft 455 kts 349°
2026-04-26 07:07 19.94881 114.36402 34918 ft 456 kts 349°
2026-04-26 07:07 20.03890 114.35612 34899 ft 455 kts 349°
2026-04-26 07:08 20.12685 114.34843 34907 ft 456 kts 349°
2026-04-26 07:08 20.21577 114.34068 34913 ft 457 kts 349°
2026-04-26 07:09 20.30500 114.33287 34915 ft 456 kts 349°
2026-04-26 07:09 20.39381 114.32507 34674 ft 458 kts 349°
2026-04-26 07:10 20.52399 114.31355 31685 ft 457 kts 351°
2026-04-26 07:11 20.59255 114.30753 30262 ft 458 kts 351°
2026-04-26 07:11 20.62432 114.30471 29180 ft 462 kts 351°
2026-04-26 07:11 20.65674 114.30183 28159 ft 464 kts 352°
2026-04-26 07:11 20.68917 114.29897 27163 ft 466 kts 352°
2026-04-26 07:12 20.72206 114.29608 26469 ft 472 kts 352°
2026-04-26 07:12 20.75504 114.29319 26054 ft 476 kts 352°
2026-04-26 07:12 20.78824 114.29029 25934 ft 478 kts 352°
2026-04-26 07:12 20.82209 114.28732 25927 ft 478 kts 352°
2026-04-26 07:13 20.85545 114.28443 25913 ft 476 kts 352°
2026-04-26 07:13 20.88829 114.28164 25584 ft 471 kts 353°
2026-04-26 07:13 20.92107 114.27886 24575 ft 474 kts 353°
2026-04-26 07:13 20.95432 114.27602 23472 ft 476 kts 353°
2026-04-26 07:14 20.98757 114.27320 22685 ft 471 kts 353°
2026-04-26 07:14 21.02051 114.27043 22179 ft 470 kts 354°
2026-04-26 07:14 21.05359 114.26764 21946 ft 470 kts 353°
2026-04-26 07:14 21.08691 114.26462 21928 ft 470 kts 353°
2026-04-26 07:15 21.11959 114.26160 21928 ft 471 kts 353°
2026-04-26 07:15 21.15262 114.25855 21932 ft 471 kts 353°
2026-04-26 07:15 21.18573 114.25551 21934 ft 471 kts 353°
2026-04-26 07:15 21.21866 114.25249 21933 ft 471 kts 353°